Wetbulb
69.27 69.90 69.74 69.41 69.80 70.47 70.36 70.63 71.01 70.29 70.03 70.32 71.15 71.23 70.82 72.51 73.19 73.31 73.05 72.28 71.91 71.50 71.05 71.07 71.76 72.22 72.22 72.24 71.69 71.10 70.09 68.36 67.12 68.45 70.88 70.48 69.97 71.19 70.95 71.03 70.42 68.89 67.54
69.72 69.52 69.95 69.95 70.03 69.80 70.29 70.28 70.40 70.45 71.45 70.93 71.19 71.54 70.96 72.48 72.32 72.16 71.96 72.80 72.04 71.77 72.01 71.67 72.05 72.19 72.84 72.39 71.54 71.24 71.20 70.85 69.28 68.73 69.82 69.56 69.89 71.04 70.29 69.11 68.47 67.52 66.06
69.77 69.06 69.74 70.29 69.98 69.62 69.83 70.53 70.56 70.55 70.69 71.51 71.34 71.67 71.61 71.59 72.36 72.12 72.15 71.84 72.06 71.91 72.29 72.36 72.37 72.04 71.91 72.59 72.43 71.20 71.29 71.16 70.91 70.05 69.75 70.81 70.50 69.89 68.17 67.27 66.02 64.84 64.36
69.31 68.75 68.55 68.87 69.67 70.20 70.63 70.78 70.71 71.13 70.50 71.17 71.49 71.55 71.04 71.69 72.30 71.95 71.81 72.00 71.92 72.06 72.45 72.37 72.39 72.11 71.82 72.04 72.00 70.92 70.36 70.58 69.89 69.41 68.97 69.64 70.27 70.63 70.14 67.51 65.07 63.58 62.21
68.30 67.76 67.40 67.08 67.63 68.19 69.27 70.27 70.89 71.07 71.23 71.62 71.26 71.19 70.75 70.24 67.60 67.07 68.55 69.71 70.39 71.12 72.03 72.56 72.11 70.67 69.33 69.92 72.09 70.59 69.90 69.24 69.55 69.28 68.55 68.46 68.95 68.82 68.17 68.80 66.79 63.03 63.70
67.49 67.58 66.77 67.38 66.89 66.87 68.19 68.86 69.06 70.05 70.89 70.52 70.25 69.04 66.80 64.71 61.81 63.03 64.94 67.80 70.50 71.17 70.81 71.92 71.42 70.24 69.31 66.21 65.56 65.98 67.74 70.29 67.80 68.03 66.93 66.24 66.48 68.41 69.34 68.12 64.39 63.58 63.39
65.83 66.44 67.33 66.28 66.57 66.53 68.62 69.00 68.32 68.10 68.41 67.06 66.52 65.27 63.31 62.28 60.14 60.85 64.94 69.36 69.09 68.57 69.11 70.53 71.26 70.10 69.74 68.33 65.35 65.27 62.91 61.79 63.73 68.63 69.07 64.13 65.42 63.16 65.32 68.26 65.76 64.31 65.37
66.00 66.05 66.79 66.79 66.25 65.76 68.12 67.53 67.58 67.87 66.77 65.50 64.53 63.92 62.95 60.17 58.40 59.32 63.76 65.77 64.47 63.53 63.54 65.22 67.72 67.60 64.23 66.97 64.17 60.25 58.22 58.45 58.15 58.22 57.01 57.98 57.89 58.30 61.33 66.00 67.74 64.47 62.75
66.30 66.58 66.56 66.38 65.57 65.59 66.34 66.67 65.97 65.93 65.07 63.98 62.89 61.61 61.28 59.39 57.10 58.25 63.04 63.49 61.60 60.76 59.90 59.68 61.31 62.95 59.57 62.57 62.62 58.25 56.53 55.50 57.63 57.95 57.58 57.31 57.41 57.57 57.94 66.44 64.85 64.33 61.22
66.00 66.29 66.79 66.38 65.95 65.48 66.18 66.83 65.07 63.24 61.06 60.30 59.15 59.20 58.14 59.42 55.96 57.61 60.99 63.80 61.68 60.66 59.87 58.73 57.02 56.52 57.32 59.72 63.03 60.98 58.24 56.29 55.81 56.60 56.56 56.23 56.47 56.19 56.52 56.59 59.74 62.62 59.16
65.45 65.79 66.17 66.54 66.54 66.49 65.27 63.96 61.93 60.16 58.97 57.81 56.92 56.42 55.90 54.92 56.02 54.33 57.26 64.05 60.85 59.60 57.73 56.10 54.78 54.00 53.27 55.43 58.42 61.53 59.46 57.38 56.05 56.12 56.07 56.18 56.27 55.75 54.31 54.72 55.73 57.19 56.06
63.89 63.67 63.39 63.78 64.03 63.53 62.36 61.97 61.38 59.49 57.85 56.82 56.08 55.25 54.64 55.08 53.74 53.39 54.27 56.50 58.12 57.30 54.77 54.10 53.26 51.17 50.92 52.37 54.77 54.60 54.87 55.91 56.38 55.05 54.10 53.21 53.00 53.16 54.59 53.01 53.40 53.95 54.30
61.89 60.20 59.05 58.43 59.26 62.14 61.48 61.02 60.20 58.89 57.26 56.38 55.80 54.95 54.81 55.43 55.05 52.94 52.81 54.09 54.69 54.47 53.91 52.53 51.28 50.17 51.49 53.68 54.05 54.85 55.82 56.06 54.76 52.19 50.84 51.97 52.62 54.36 55.46 54.33 54.35 52.96 51.99
58.04 56.05 55.39 54.23 53.04 53.69 54.96 58.92 59.91 58.82 58.17 57.08 56.41 55.80 55.70 55.53 55.35 55.46 54.96 53.85 53.19 52.92 52.40 51.99 51.59 51.40 51.27 52.00 52.67 53.70 53.78 53.76 51.78 50.82 49.91 49.86 51.27 51.80 51.38 53.18 51.55 51.25 50.87
55.98 53.41 51.25 51.02 50.98 48.60 47.14 48.02 49.87 47.31 52.77 59.05 57.94 57.10 56.25 55.01 53.46 49.56 51.13 53.20 53.08 51.37 51.96 51.93 50.92 50.27 49.44 48.86 48.64 48.95 49.32 49.37 48.77 48.79 48.86 48.82 49.02 49.69 48.78 49.98 49.48 48.85 47.42
54.38 52.01 49.57 48.53 48.34 49.05 49.19 48.70 45.54 44.53 43.46 43.25 44.74 51.91 51.08 48.54 46.01 44.94 44.94 45.30 46.57 48.78 50.45 48.65 47.53 47.62 46.96 47.18 47.28 47.32 47.66 47.48 46.46 46.89 47.31 47.87 47.80 48.63 48.87 49.13 48.71 47.85 47.10
54.77 51.65 49.31 47.95 48.56 48.90 49.49 50.39 49.96 49.26 45.11 43.00 42.17 42.91 45.12 45.45 42.91 42.40 42.40 43.31 45.21 49.75 51.89 51.57 51.04 50.75 49.77 48.91 47.66 46.71 45.98 45.71 46.40 47.35 48.22 47.74 47.34 48.07 49.23 48.38 47.75 48.00 47.08
57.21 51.81 52.23 50.13 49.65 49.79 49.64 49.40 49.87 51.03 51.92 52.43 46.37 46.12 42.35 43.12 43.72 44.40 42.76 49.13 55.44 54.34 54.28 53.31 52.45 51.46 50.59 48.95 46.55 45.65 44.86 45.93 47.13 48.18 48.51 48.53 47.81 48.11 48.34 47.86 47.74 47.53 47.31
57.92 57.23 56.09 54.16 53.70 51.30 48.84 47.46 47.34 48.87 50.82 51.67 52.64 49.77 47.13 44.30 43.97 44.23 45.29 56.23 55.75 54.94 55.36 54.48 53.72 52.43 49.69 46.76 46.67 46.33 47.15 48.24 48.89 48.20 48.25 48.93 47.35 48.27 47.70 48.18 46.93 44.21 44.95
56.56 55.98 56.08 56.51 55.45 54.28 51.23 48.65 48.90 47.79 49.92 51.61 52.22 53.09 52.83 51.83 54.51 53.91 52.60 54.13 53.56 53.45 53.79 53.63 52.96 51.47 48.02 47.09 47.20 47.86 48.51 48.62 47.20 46.89 46.64 47.18 46.60 46.77 46.02 46.07 45.94 45.19 44.97
53.29 53.65 54.15 53.82 56.01 55.93 55.77 54.81 50.67 49.99 48.53 49.45 50.40 50.89 48.02 54.69 54.45 52.56 51.61 53.06 54.22 53.17 52.02 51.54 50.71 49.93 48.53 48.12 48.30 48.84 48.31 48.48 47.40 46.95 46.36 45.98 45.77 45.50 46.00 46.03 45.42 45.09 45.43
52.52 52.29 51.02 50.33 51.88 52.14 52.34 53.47 55.47 52.24 51.52 49.54 49.60 49.35 44.14 53.21 52.63 52.52 51.68 52.49 52.88 54.66 53.17 51.93 50.80 50.40 49.72 49.24 49.04 49.76 48.92 48.84 48.29 47.61 46.73 45.92 45.80 45.82 46.03 45.71 45.84 45.99 46.26
54.80 53.56 52.44 52.42 52.48 51.31 52.37 52.25 51.44 52.88 53.75 52.74 51.07 50.32 49.44 51.44 52.54 51.32 52.37 53.48 53.73 53.50 52.88 51.86 51.83 50.77 50.72 50.40 49.36 50.19 49.93 49.57 49.39 48.16 46.69 45.94 45.33 45.42 45.85 45.99 46.03 46.05 46.61
53.07 53.65 53.53 52.99 52.48 52.68 53.44 53.35 52.99 48.54 51.95 52.12 53.04 52.15 51.48 51.26 51.64 51.60 51.66 52.91 53.60 53.77 53.29 52.24 52.23 52.25 51.71 50.96 50.47 50.38 50.54 50.28 49.16 48.39 47.96 46.68 46.07 44.17 46.52 46.39 46.63 46.32 46.45
53.77 53.47 53.37 54.17 54.36 53.66 52.80 52.86 53.89 54.05 54.31 54.05 54.18 53.82 53.74 52.76 52.05 52.13 51.38 51.64 51.57 51.98 52.80 52.72 52.27 52.44 52.31 51.94 51.46 50.92 46.68 36.80 47.17 43.23 47.46 47.63 47.48 47.33 47.50 47.67 47.82 47.49 45.46
53.09 53.83 54.75 54.22 53.83 54.47 54.13 53.40 53.12 52.90 53.29 53.96 53.76 52.36 53.03 52.58 52.98 52.78 52.60 53.17 52.50 52.60 52.62 52.47 52.42 52.09 51.95 51.14 51.00 45.87 34.55 33.71 42.25 37.70 47.61 47.69 47.40 46.30 45.95 47.58 47.22 47.17 46.64
MSLP
1014.43 1014.78 1015.22 1015.64 1016.00 1016.37 1016.54 1016.66 1016.79 1016.77 1016.95 1017.12 1017.12 1017.14 1017.27 1017.28 1017.50 1017.58 1017.88 1018.06 1018.08 1018.11 1018.13 1018.23 1018.23 1018.21 1018.20 1018.19 1018.10 1018.19 1018.11 1018.26 1018.44 1018.45 1018.56 1018.73 1018.91 1018.86 1018.99 1019.18 1019.26 1019.50 1019.70
1014.03 1014.52 1014.85 1015.17 1015.67 1016.12 1016.36 1016.49 1016.65 1016.68 1016.68 1016.84 1017.03 1017.17 1017.30 1017.42 1017.54 1017.64 1017.77 1017.88 1018.09 1018.06 1017.97 1017.99 1018.00 1017.97 1017.92 1017.89 1018.05 1018.13 1018.11 1018.19 1018.22 1018.23 1018.40 1018.58 1018.78 1018.96 1019.01 1019.38 1019.50 1019.64 1019.72
1013.55 1014.10 1014.59 1014.76 1015.18 1015.71 1016.08 1016.28 1016.41 1016.52 1016.54 1016.78 1016.99 1017.10 1017.30 1017.41 1017.54 1017.68 1017.65 1017.67 1017.77 1017.76 1017.75 1017.72 1017.67 1017.82 1017.65 1017.74 1017.94 1018.10 1018.16 1018.11 1018.22 1018.20 1018.29 1018.58 1018.77 1018.95 1019.29 1019.60 1019.88 1020.00 1019.88
1013.27 1013.76 1014.22 1014.49 1014.59 1015.02 1015.39 1015.81 1016.13 1016.31 1016.53 1016.70 1016.81 1017.02 1017.34 1017.53 1017.63 1017.66 1017.70 1017.68 1017.69 1017.67 1017.71 1017.77 1017.66 1017.64 1017.53 1017.74 1017.76 1017.83 1018.02 1018.06 1018.24 1018.46 1018.57 1018.52 1018.61 1018.85 1019.03 1019.39 1019.78 1020.00 1020.04
1013.55 1013.91 1013.90 1014.21 1014.54 1014.88 1015.16 1015.57 1015.89 1016.14 1016.23 1016.40 1016.67 1016.99 1017.33 1017.60 1017.76 1017.81 1017.71 1017.70 1017.67 1017.59 1017.48 1017.39 1017.50 1017.60 1017.62 1017.65 1017.76 1017.95 1017.99 1017.99 1018.15 1018.48 1018.66 1018.64 1018.63 1018.76 1018.81 1019.15 1019.61 1020.12 1020.29
1013.79 1013.99 1014.11 1014.41 1014.36 1014.63 1014.91 1015.33 1015.68 1015.94 1016.15 1016.38 1016.77 1017.10 1017.51 1018.00 1018.28 1018.19 1017.98 1017.74 1017.60 1017.58 1017.51 1017.36 1017.50 1017.72 1017.87 1017.99 1018.25 1018.47 1018.60 1018.30 1018.26 1018.36 1018.59 1018.64 1018.77 1018.80 1018.74 1019.00 1019.52 1019.93 1020.17
1013.48 1013.91 1014.23 1014.21 1014.42 1014.46 1014.70 1015.04 1015.46 1015.79 1016.25 1016.60 1017.08 1017.57 1017.98 1018.18 1018.13 1018.20 1018.11 1017.88 1017.80 1017.89 1017.88 1017.72 1017.84 1017.97 1018.05 1017.83 1018.44 1018.83 1019.32 1018.90 1018.59 1018.50 1018.81 1019.44 1019.42 1019.40 1019.26 1019.03 1019.25 1019.57 1019.75
1013.67 1013.70 1014.13 1014.27 1014.53 1014.76 1014.91 1015.10 1015.49 1015.94 1016.41 1016.74 1017.19 1017.75 1018.05 1018.26 1018.08 1018.08 1018.11 1018.23 1018.32 1018.61 1018.57 1018.55 1018.20 1018.28 1018.44 1018.50 1018.84 1019.36 1019.65 1019.52 1019.14 1019.21 1019.67 1020.13 1020.01 1019.71 1019.29 1019.14 1019.08 1019.56 1020.10
1013.58 1013.74 1014.13 1014.36 1014.52 1014.87 1015.12 1015.33 1015.72 1016.21 1016.73 1017.10 1017.52 1017.71 1018.06 1018.32 1018.03 1017.86 1018.09 1018.23 1018.72 1019.05 1019.01 1018.98 1018.82 1018.76 1018.70 1018.71 1019.02 1019.56 1019.88 1020.37 1020.10 1019.92 1020.16 1020.34 1020.20 1019.84 1019.39 1019.19 1019.33 1019.62 1020.21
1013.53 1013.70 1013.98 1014.29 1014.62 1014.72 1014.98 1015.33 1016.04 1016.61 1017.23 1017.75 1018.19 1018.43 1018.43 1018.45 1018.32 1017.95 1018.06 1018.55 1018.78 1018.94 1019.04 1019.19 1019.24 1019.16 1018.94 1018.81 1019.16 1019.62 1020.08 1020.43 1020.57 1020.37 1020.49 1020.67 1020.61 1020.43 1020.25 1020.03 1019.97 1020.01 1020.60
1013.68 1014.00 1014.08 1014.19 1014.35 1014.62 1015.13 1015.73 1016.33 1017.02 1017.65 1018.31 1018.65 1019.16 1019.21 1019.25 1018.86 1018.43 1018.33 1018.83 1018.93 1019.25 1019.68 1019.99 1020.04 1019.70 1019.06 1019.07 1019.32 1019.58 1020.07 1020.68 1020.86 1020.92 1021.12 1021.25 1021.30 1021.24 1021.16 1021.08 1020.85 1020.79 1021.13
1014.33 1014.38 1014.75 1014.81 1015.05 1015.25 1015.54 1016.15 1016.80 1017.40 1017.99 1018.68 1019.15 1019.49 1019.57 1019.73 1019.69 1019.24 1018.71 1018.91 1019.15 1019.58 1020.15 1020.33 1020.50 1020.24 1020.00 1019.54 1019.64 1019.99 1020.36 1020.70 1021.02 1021.36 1021.67 1022.00 1021.89 1022.20 1022.04 1021.83 1021.58 1021.76 1021.75
1015.20 1015.41 1015.64 1015.88 1016.08 1016.16 1016.36 1017.18 1017.69 1018.17 1018.61 1019.15 1019.49 1019.79 1019.92 1020.05 1020.20 1019.98 1019.90 1019.78 1019.83 1020.17 1020.50 1020.78 1020.82 1020.74 1020.52 1020.50 1020.73 1020.93 1021.11 1021.31 1021.58 1021.94 1022.26 1022.61 1022.53 1022.48 1022.33 1022.31 1022.45 1022.30 1022.26
1015.90 1016.17 1016.56 1016.63 1017.13 1017.35 1017.45 1017.66 1018.28 1018.95 1019.30 1019.71 1019.96 1020.17 1020.33 1020.48 1020.46 1020.54 1020.79 1020.78 1020.67 1020.83 1021.12 1021.26 1021.19 1021.10 1021.02 1021.20 1021.33 1021.45 1021.78 1021.91 1022.26 1022.51 1022.58 1022.84 1022.70 1022.86 1022.83 1022.90 1022.97 1022.98 1022.89
1016.42 1016.86 1017.22 1017.52 1017.93 1018.32 1018.86 1019.00 1019.11 1019.68 1019.56 1019.50 1019.95 1020.13 1020.46 1020.60 1021.15 1021.29 1021.34 1021.54 1021.67 1021.80 1021.69 1021.63 1021.51 1021.60 1021.79 1021.97 1022.25 1022.31 1022.53 1022.73 1022.87 1023.09 1023.10 1023.18 1023.45 1023.08 1023.69 1023.49 1023.48 1023.67 1023.73
1017.27 1017.58 1017.89 1018.19 1018.49 1018.95 1019.46 1020.04 1020.17 1020.14 1019.94 1020.02 1020.19 1020.52 1021.15 1021.32 1021.44 1021.54 1021.95 1021.94 1021.88 1021.70 1022.14 1022.24 1022.29 1022.46 1022.59 1022.71 1022.79 1022.96 1023.19 1023.60 1023.56 1023.53 1023.74 1023.67 1023.82 1023.55 1023.99 1024.15 1024.03 1024.12 1024.42
1017.79 1018.32 1018.71 1018.94 1019.10 1019.21 1019.25 1019.45 1019.91 1020.59 1020.61 1020.77 1020.99 1021.23 1021.52 1021.94 1022.02 1022.08 1022.14 1022.31 1022.25 1022.13 1022.17 1022.57 1022.60 1022.77 1023.14 1023.35 1023.65 1023.60 1023.86 1023.98 1024.02 1023.94 1023.87 1024.14 1024.06 1023.99 1024.11 1024.38 1024.45 1024.52 1024.80
1017.97 1018.63 1018.93 1019.28 1019.44 1019.65 1019.85 1019.99 1020.05 1020.49 1020.88 1021.48 1021.90 1022.14 1022.44 1022.28 1022.30 1022.24 1022.64 1022.25 1022.52 1022.38 1022.31 1022.60 1022.77 1023.04 1023.31 1023.63 1024.15 1024.41 1024.49 1024.61 1024.55 1024.36 1024.47 1024.47 1024.35 1024.47 1024.55 1024.72 1024.77 1025.05 1025.11
1018.19 1018.61 1018.93 1019.46 1019.70 1019.91 1020.25 1020.50 1020.77 1020.97 1021.05 1021.43 1021.99 1022.22 1022.40 1022.28 1022.35 1022.33 1022.32 1022.23 1022.20 1022.37 1022.48 1022.66 1022.83 1022.96 1023.41 1023.68 1023.98 1024.37 1024.58 1024.60 1024.70 1024.85 1025.01 1024.71 1024.77 1024.91 1025.09 1025.17 1025.31 1025.49 1025.54
1018.56 1018.78 1018.84 1019.15 1019.69 1020.12 1020.41 1020.44 1020.60 1020.97 1021.50 1021.67 1021.81 1021.98 1022.43 1022.67 1022.52 1022.50 1022.38 1022.33 1022.11 1022.03 1022.32 1022.64 1023.04 1023.17 1023.31 1023.73 1023.90 1024.14 1024.28 1024.51 1024.76 1024.89 1025.12 1025.13 1025.27 1025.31 1025.54 1025.72 1025.61 1025.83 1025.81
1018.40 1018.59 1018.77 1019.18 1019.39 1019.71 1020.32 1020.56 1020.70 1020.95 1021.04 1021.26 1021.60 1021.77 1021.66 1021.77 1021.96 1022.16 1022.11 1021.98 1021.99 1021.94 1022.29 1022.57 1022.98 1023.20 1023.34 1023.56 1023.84 1024.15 1024.28 1024.25 1024.56 1024.77 1025.08 1025.27 1025.58 1025.68 1025.88 1026.02 1026.26 1026.18 1026.15
1018.11 1018.53 1018.94 1019.27 1019.48 1019.67 1019.84 1020.36 1020.41 1020.39 1020.68 1020.87 1020.88 1021.33 1021.42 1021.31 1021.22 1021.42 1021.55 1021.66 1021.81 1021.83 1022.03 1022.38 1022.68 1022.96 1023.10 1023.50 1023.69 1023.73 1024.01 1024.03 1024.23 1024.62 1024.93 1025.14 1025.58 1025.84 1025.92 1026.25 1026.37 1026.32 1026.40
1017.97 1018.28 1018.70 1019.02 1019.23 1019.45 1019.66 1019.79 1020.09 1019.90 1020.13 1020.32 1020.41 1020.79 1021.06 1021.08 1020.77 1020.65 1020.99 1021.02 1021.32 1021.71 1021.93 1022.18 1022.35 1022.69 1023.06 1023.12 1023.42 1023.46 1023.49 1023.66 1023.92 1024.38 1024.68 1025.13 1025.55 1025.69 1025.91 1026.06 1026.14 1026.26 1026.31
1017.85 1018.21 1018.42 1018.73 1019.03 1019.00 1019.11 1019.28 1019.42 1019.38 1019.68 1019.71 1020.05 1020.41 1020.38 1020.38 1020.44 1020.55 1020.87 1021.03 1021.14 1021.35 1021.66 1021.92 1022.05 1022.00 1022.33 1022.79 1023.05 1023.32 1023.48 1023.57 1023.78 1024.09 1024.48 1024.96 1025.23 1025.49 1025.69 1025.86 1025.95 1025.98 1026.01
1017.49 1017.63 1017.85 1018.11 1018.30 1018.55 1018.73 1018.74 1018.77 1019.00 1019.15 1019.36 1019.44 1019.55 1019.53 1019.77 1019.95 1019.95 1020.07 1020.28 1020.63 1020.86 1021.00 1021.22 1021.35 1021.50 1021.79 1022.02 1022.26 1022.51 1022.69 1023.25 1023.57 1023.86 1024.20 1024.45 1024.77 1025.17 1025.40 1025.42 1025.45 1025.55 1025.83
1017.01 1017.29 1017.59 1017.83 1017.89 1018.02 1018.19 1018.42 1018.55 1018.66 1018.86 1018.81 1018.95 1019.09 1019.00 1019.18 1019.24 1019.34 1019.56 1019.71 1019.71 1019.83 1020.03 1020.40 1020.64 1020.82 1020.90 1021.46 1021.84 1021.97 1022.78 1022.98 1023.36 1023.65 1023.76 1024.22 1024.52 1024.96 1025.05 1025.13 1025.34 1025.54 1025.72
Wind_Speed
9 9 8 7 5 4 4 4 5 4 5 5 4 3 3 4 2 2 3 3 3 3 2 2 3 2 2 1 0 1 2 2 2 1 1 1 1 4 5 5 4 4 4
6 6 8 6 6 5 5 5 4 5 4 4 4 4 5 3 2 2 3 3 5 5 4 3 4 2 2 2 1 0 1 1 1 2 1 2 2 4 4 4 3 3 4
9 9 7 9 8 8 7 6 5 5 4 3 3 4 3 3 3 4 4 4 4 4 4 4 5 4 3 2 3 1 0 1 0 1 1 1 1 4 3 3 3 4 5
6 8 8 7 7 7 6 6 5 5 5 4 5 4 4 4 3 2 3 4 5 5 5 5 4 4 5 4 4 3 2 2 1 0 1 1 1 2 2 2 2 1 3
2 3 5 5 5 4 4 3 4 4 5 5 3 3 2 2 2 4 3 4 4 6 5 4 3 2 6 2 2 2 3 2 1 1 1 1 2 2 3 2 2 1 1
5 4 4 4 6 5 4 2 3 4 3 3 3 4 5 4 7 7 5 3 4 4 5 2 3 0 3 11 14 12 6 3 1 1 0 1 1 0 1 2 3 2 2
5 4 4 5 4 4 4 4 4 4 5 7 7 6 5 4 7 7 6 2 4 4 3 1 2 3 1 5 6 7 9 13 10 2 2 4 3 3 3 2 3 2 2
5 4 4 5 4 4 5 6 6 6 6 6 7 6 5 4 8 9 7 5 5 5 5 5 3 3 5 2 6 7 8 8 8 8 9 5 4 4 3 2 1 4 4
5 5 5 5 5 5 4 7 6 6 6 5 4 5 4 3 9 9 5 4 4 5 4 7 5 4 6 6 7 8 8 6 10 15 13 10 13 15 9 2 2 3 2
6 5 4 5 6 7 7 8 5 6 6 5 6 5 6 4 9 5 1 3 3 2 4 6 12 7 3 8 7 7 7 4 3 5 6 9 10 11 16 9 2 2 2
4 4 3 3 3 6 5 6 8 8 8 7 7 6 6 7 7 6 1 3 3 4 4 4 5 8 9 4 5 4 5 6 8 7 6 6 8 9 8 9 10 5 3
6 7 7 7 6 6 10 8 8 8 9 7 6 5 5 6 11 9 11 9 9 6 4 3 4 10 11 12 10 13 13 8 5 6 5 5 6 4 4 5 7 7 7
8 8 9 9 8 7 10 8 7 7 6 5 5 5 5 5 5 11 11 12 12 7 5 6 6 8 10 12 13 12 8 5 5 5 4 3 2 2 4 4 4 6 6
9 8 6 9 8 7 6 5 6 6 5 5 4 4 4 4 4 4 5 6 9 7 7 5 8 9 11 8 7 6 4 4 4 3 3 2 1 2 3 3 4 5 6
8 6 6 6 7 7 7 5 5 4 2 5 4 4 4 5 3 4 5 5 5 5 5 4 5 5 6 6 6 6 5 5 5 4 4 5 4 5 4 4 5 6 7
6 5 4 5 4 5 6 6 15 10 10 9 9 4 3 6 7 7 8 8 7 5 4 4 5 5 5 5 5 5 5 6 4 4 5 5 4 5 5 5 5 6 7
6 4 4 3 3 4 3 5 7 7 13 13 11 8 6 8 7 6 7 7 6 4 5 4 4 4 4 4 3 3 2 3 2 4 4 4 4 5 4 5 5 5 6
6 7 4 3 3 3 3 3 4 4 5 4 8 6 6 7 7 5 6 5 3 3 2 3 3 3 3 3 3 3 3 3 3 4 3 3 4 4 5 5 4 5 5
5 4 4 4 3 4 4 4 3 3 4 4 3 3 4 5 4 4 2 1 3 2 2 2 3 3 3 4 4 4 3 3 2 2 2 3 3 4 5 4 5 5 4
4 6 4 4 4 3 2 3 4 5 3 3 3 4 3 1 2 1 0 1 2 3 3 3 3 4 4 4 4 3 3 2 3 3 3 3 3 3 4 4 4 4 4
2 2 5 3 3 3 3 3 3 3 4 5 3 4 7 5 4 2 2 2 2 3 3 3 3 3 4 4 4 4 4 4 3 3 3 3 3 4 3 4 4 4 4
4 4 4 3 3 4 4 3 4 5 5 4 4 3 8 4 4 4 4 4 4 4 4 4 4 4 5 6 6 5 5 4 4 4 4 4 4 4 4 4 3 4 3
4 4 3 3 3 4 4 4 4 4 5 5 4 5 5 6 6 6 7 5 4 4 4 4 5 5 4 4 5 5 6 6 5 5 5 5 5 5 4 4 3 3 2
4 5 5 4 4 4 4 4 4 4 5 4 5 6 7 7 7 6 4 4 4 4 5 6 6 8 6 6 5 5 5 3 5 7 8 6 6 5 4 4 4 4 4
4 4 3 3 3 4 4 4 5 5 5 4 4 4 4 5 6 7 6 5 6 6 7 7 6 8 10 12 10 10 9 11 8 7 6 8 8 8 6 5 5 5 4
4 4 3 2 3 3 4 4 4 4 4 5 4 4 3 4 5 5 5 6 6 6 7 6 9 12 11 7 8 9 5 11 10 10 9 7 6 5 5 4 3 2 3
Wind_Direction
194 185 186 193 197 209 220 223 217 197 196 219 208 216 231 242 219 197 226 218 242 277 264 265 284 268 293 213 176 172 149 165 220 145 110 121 99 124 107 102 105 109 80
194 176 192 173 180 189 220 231 224 220 201 219 212 217 221 229 230 211 236 228 230 243 256 271 277 275 262 208 148 316 258 199 205 225 154 147 141 147 140 119 97 90 94
178 188 190 186 180 194 205 214 217 230 241 219 206 234 237 236 240 229 227 243 244 253 251 255 263 263 245 233 195 210 238 111 271 207 148 147 125 163 126 90 88 78 94
180 184 191 201 191 190 196 200 203 215 220 224 214 219 226 239 247 261 264 271 270 264 257 251 263 277 265 215 198 159 166 122 78 356 277 168 146 158 153 163 159 100 114
162 184 156 138 130 128 142 198 225 225 227 223 220 194 139 115 27 325 295 272 267 276 267 232 226 1 312 250 153 193 179 162 171 222 207 186 175 200 226 149 136 92 39
179 155 132 141 131 119 111 176 220 224 212 175 170 135 108 79 18 354 325 300 299 285 261 199 152 350 44 56 34 32 4 303 5 339 304 208 115 152 162 150 112 159 214
155 170 166 139 129 106 89 99 107 132 123 116 113 110 90 69 35 14 347 18 39 21 338 34 104 52 350 97 96 60 27 27 38 345 332 29 2 19 326 169 161 162 181
168 171 177 158 152 138 102 100 98 96 104 109 112 121 121 65 45 27 22 77 71 55 40 17 53 66 41 66 99 79 58 47 49 71 76 65 36 309 246 330 329 115 80
193 181 176 167 164 165 160 122 110 105 106 99 100 84 86 64 27 34 37 87 75 60 51 35 24 25 336 128 108 103 87 75 64 76 74 64 50 40 40 174 122 154 123
170 147 173 183 179 171 169 144 123 104 98 96 90 73 63 53 14 9 59 145 133 83 54 34 26 6 2 124 132 136 123 123 94 64 48 39 37 39 42 52 16 111 102
81 68 78 138 148 132 103 111 109 110 100 84 76 56 43 14 11 13 150 152 115 95 63 34 11 16 49 61 124 128 112 117 90 80 70 54 40 34 36 34 38 53 83
66 78 73 56 65 84 98 91 95 99 95 87 84 71 52 34 21 28 68 93 103 104 90 69 55 47 53 63 76 104 109 108 96 82 71 61 66 47 41 59 57 49 51
80 76 70 64 68 67 88 91 93 103 106 106 106 94 66 49 61 49 64 80 82 88 93 100 78 63 70 69 69 70 74 80 87 85 87 64 60 64 59 43 55 68 67
85 73 75 88 79 62 68 90 115 118 118 120 111 100 103 84 69 66 69 75 80 86 94 80 80 81 73 73 70 66 68 78 92 95 86 75 60 41 44 17 57 61 63
84 78 72 75 80 81 67 52 82 52 23 139 137 126 115 100 88 62 88 90 86 85 95 78 66 65 69 67 62 58 54 51 68 58 74 81 69 79 55 47 58 59 66
95 92 91 101 100 111 115 90 53 55 53 65 68 99 67 76 113 96 90 74 69 60 63 76 72 69 74 78 76 74 63 66 61 83 83 85 86 87 89 78 76 74 72
107 101 90 83 90 101 90 106 107 68 71 55 51 68 84 140 125 113 97 86 95 78 94 95 97 90 81 70 60 60 76 68 101 96 92 91 94 92 103 99 86 83 78
121 125 126 128 109 88 76 89 105 118 115 88 51 66 59 92 102 114 140 129 105 73 106 127 120 112 101 102 97 94 99 104 80 79 91 96 91 105 107 97 87 90 83
127 136 134 127 127 126 124 107 94 103 111 113 108 79 60 66 58 45 124 151 148 157 147 146 146 139 133 135 131 129 131 111 91 84 79 89 89 98 102 100 89 71 84
125 123 115 133 135 133 136 129 128 129 125 137 152 156 153 130 190 214 224 172 144 141 167 177 180 158 147 152 150 146 134 129 121 102 104 117 108 97 102 107 91 92 76
145 137 155 158 162 163 177 184 166 157 160 168 189 199 182 173 184 204 219 209 205 173 179 176 176 175 164 161 161 165 161 154 156 133 127 122 125 116 106 99 101 103 111
145 146 150 176 164 175 184 214 203 196 200 192 187 213 193 203 189 201 214 221 224 212 197 187 188 191 184 186 186 177 179 173 163 161 150 135 136 138 133 137 129 122 128
153 163 171 180 191 187 194 207 219 219 226 217 201 207 199 227 218 206 210 202 191 206 208 207 195 192 193 194 199 195 186 194 187 168 161 162 166 160 161 160 163 170 168
143 157 172 184 205 212 217 221 215 220 230 228 215 220 219 219 228 231 217 225 226 234 221 211 216 200 188 192 193 208 223 200 174 178 170 169 166 169 176 183 192 193 198
175 172 185 205 203 206 216 215 200 203 212 221 234 232 220 218 226 230 219 211 221 226 227 216 211 215 204 197 196 200 198 177 183 170 173 173 182 187 192 200 197 207 214
176 182 196 211 242 242 216 198 205 194 215 217 210 226 219 222 227 222 209 207 207 209 202 201 211 214 200 202 216 197 177 174 177 186 176 189 188 196 202 211 222 250 244